Tillbaka till svenska Fidonet
English   Information   Debug  
FILM   0/18
FNEWS_PUBLISH   5034
FN_SYSOP   42247
FN_SYSOP_OLD1   71952
FTP_FIDO   0/2
FTSC_PUBLIC   0/13979
FUNNY   0/4886
GENEALOGY.EUR   0/71
GET_INFO   105
GOLDED   0/408
HAM   1267/16786
HOLYSMOKE   0/6791
HOT_SITES   0/1
HTMLEDIT   0/71
HUB203   466
HUB_100   264
HUB_400   39
HUMOR   0/29
IC   0/2851
INTERNET   0/424
INTERUSER   0/3
IP_CONNECT   719
JAMNNTPD   0/233
JAMTLAND   0/47
KATTY_KORNER   0/41
LAN   0/16
LINUX-USER   0/19
LINUXHELP   0/1155
LINUX   0/22427
LINUX_BBS   0/957
mail   18.68
mail_fore_ok   249
MENSA   0/341
MODERATOR   0/102
MONTE   0/992
MOSCOW_OKLAHOMA   0/1245
MUFFIN   0/783
MUSIC   0/321
N203_STAT   938
N203_SYSCHAT   313
NET203   321
NET204   69
NET_DEV   0/10
NORD.ADMIN   0/101
NORD.CHAT   0/2572
NORD.FIDONET   189
NORD.HARDWARE   0/28
NORD.KULTUR   0/114
NORD.PROG   0/32
NORD.SOFTWARE   0/88
NORD.TEKNIK   0/58
NORD   0/453
OCCULT_CHAT   0/93
OS2BBS   0/787
OS2DOSBBS   0/580
OS2HW   0/42
OS2INET   0/37
OS2LAN   0/134
OS2PROG   0/36
OS2REXX   0/113
OS2USER-L   207
OS2   0/4835
OSDEBATE   0/18996
PASCAL   0/490
PERL   0/457
PHP   0/45
POINTS   0/405
POLITICS   0/29554
POL_INC   14083/14731
PSION   103
R20_ADMIN   1133
R20_AMATORRADIO   0/2
R20_BEST_OF_FIDONET   16
R20_CHAT   0/897
R20_DEPP   0/3
R20_DEV   400
R20_ECHO2   1933
R20_ECHOPRES   0/35
R20_ESTAT   0/719
R20_FIDONETPROG...
...RAM.MYPOINT
  0/2
R20_FIDONETPROGRAM   0/22
R20_FIDONET   0/248
R20_FILEFIND   0/24
R20_FILEFOUND   0/22
R20_HIFI   0/3
R20_INFO2   3827
R20_INTERNET   0/12940
R20_INTRESSE   0/60
R20_INTR_KOM   0/99
R20_KANDIDAT.CHAT   42
R20_KANDIDAT   28
R20_KOM_DEV   112
R20_KONTROLL   0/13360
R20_KORSET   0/18
R20_LOKALTRAFIK   0/24
R20_MODERATOR   0/1852
R20_NC   76
R20_NET200   245
R20_NETWORK.OTH...
...ERNETS
  0/13
R20_OPERATIVSYS...
...TEM.LINUX
  0/44
R20_PROGRAMVAROR   0/1
R20_REC2NEC   534
R20_SFOSM   0/341
R20_SF   0/108
R20_SPRAK.ENGLISH   0/1
R20_SQUISH   107
R20_TEST   2
R20_WORST_OF_FIDONET   20
RAR   0/9
RA_MULTI   106
RA_UTIL   0/162
REGCON.EUR   0/2072
REGCON   0/13
SCIENCE   0/1206
SF   0/239
SHAREWARE_SUPPORT   0/5146
SHAREWRE   0/14
SIMPSONS   0/169
STATS_OLD1   0/2539.065
STATS_OLD2   0/2530
STATS_OLD3   0/2395.095
STATS_OLD4   0/1692.25
SURVIVOR   0/495
SYSOPS_CORNER   0/3
SYSOP   0/84
TAGLINES   0/112
TEAMOS2   0/4530
TECH   0/2617
TEST.444   0/105
TRAPDOOR   0/19
TREK   0/755
TUB   0/290
UFO   0/40
UNIX   0/1316
USA_EURLINK   0/102
USR_MODEMS   0/1
VATICAN   0/2740
VIETNAM_VETS   0/14
VIRUS   0/378
VIRUS_INFO   0/201
VISUAL_BASIC   0/473
WHITEHOUSE   0/5187
WIN2000   0/101
WIN32   0/30
WIN95   0/4291
WIN95_OLD1   62002/70272
WINDOWS   0/1517
WWB_SYSOP   0/419
WWB_TECH   0/810
ZCC-PUBLIC   0/1
ZEC   4

 
4DOS   0/134
ABORTION   0/7
ALASKA_CHAT   0/506
ALLFIX_FILE   0/1313
ALLFIX_FILE_OLD1   0/7997
ALT_DOS   0/152
AMATEUR_RADIO   0/1039
AMIGASALE   0/14
AMIGA   0/331
AMIGA_INT   0/1
AMIGA_PROG   0/20
AMIGA_SYSOP   0/26
ANIME   0/15
ARGUS   0/924
ASCII_ART   0/340
ASIAN_LINK   0/651
ASTRONOMY   0/417
AUDIO   0/92
AUTOMOBILE_RACING   0/105
BABYLON5   0/17862
BAG   135
BATPOWER   0/361
BBBS.ENGLISH   0/382
BBSLAW   0/109
BBS_ADS   0/5290
BBS_INTERNET   0/507
BIBLE   0/3563
BINKD   855/1119
BINKLEY   0/215
BLUEWAVE   0/2173
CABLE_MODEMS   0/25
CBM   0/46
CDRECORD   0/66
CDROM   0/20
CLASSIC_COMPUTER   0/378
COMICS   0/15
CONSPRCY   0/899
COOKING   42383
COOKING_OLD1   0/24719
COOKING_OLD2   0/40862
COOKING_OLD3   0/37489
COOKING_OLD4   15391/35496
COOKING_OLD5   9370
C_ECHO   0/189
C_PLUSPLUS   0/31
DIRTY_DOZEN   0/201
DOORGAMES   0/2388
DOS_INTERNET   0/196
duplikat   6102
ECHOLIST   0/18295
EC_SUPPORT   184/318
ELECTRONICS   0/359
ELEKTRONIK.GER   1534
ENET.LINGUISTIC   0/13
ENET.POLITICS   0/4
ENET.SOFT   0/11701
ENET.SYSOP   34401
ENET.TALKS   0/32
ENGLISH_TUTOR   0/2000
EVOLUTION   0/1335
FDECHO   0/217
FDN_ANNOUNCE   3756/7068
FIDONEWS   25225
FIDONEWS_OLD1   0/49742
FIDONEWS_OLD2   0/35949
FIDONEWS_OLD3   0/30874
FIDONEWS_OLD4   0/37224
FIDO_SYSOP   12977
FIDO_UTIL   0/180
FILEFIND   0/209
FILEGATE   0/212
Möte HAM, 16786 texter
 lista första sista föregående nästa
Text 5156, 977 rader
Skriven 2012-03-23 00:01:31 av Amsat List (1:323/120.0)
Ärende: [keps] orb12082.amsa
============================
[keps] orb12082.amsa

Sender: keps-bounces@amsat.org
Return-Path: <keps-bounces@amsat.org>
X-Rcpt: craig.healy@chowda.com
X-UIDL: 1332478505.3479

SB KEPS @ AMSAT  $ORB12082.O
Orbital Elements  12082.OSCAR

HR AMSAT ORBITAL ELEMENTS FOR OSCAR SATELLITES
FROM WA5QGD FORT WORTH,TX March 22, 2012
Send SUBSCRIBE KEPS/UNSUBSCRIBE KEPS to majordomo@amsat.org only
BID: ORB12082.O
TO ALL RADIO AMATEURS BT

Satellite: AO-07
Catalog number: 07530
Epoch time:      12082.63613545
Element set:     337
Inclination:      101.4020 deg
RA of node:       083.1963 deg
Eccentricity:    0.0012119
Arg of perigee:   092.0812 deg
Mean anomaly:     268.1648 deg
Mean motion:   12.53588272 rev/day
Decay rate:       -2.7e-07 rev/day^2
Epoch rev:           70920
Checksum:              272

Satellite: FO-29
Catalog number: 24278
Epoch time:      12081.92334778
Element set:    0809
Inclination:      098.5763 deg
RA of node:       194.0205 deg
Eccentricity:    0.0349631
Arg of perigee:   255.2547 deg
Mean anomaly:     100.9609 deg
Mean motion:   13.52978999 rev/day
Decay rate:        3.3e-07 rev/day^2
Epoch rev:           77015
Checksum:              345

Satellite: SO-33
Catalog number: 25509
Epoch time:      12081.43849982
Element set:     190
Inclination:      031.4318 deg
RA of node:       110.2376 deg
Eccentricity:    0.0352671
Arg of perigee:   155.5701 deg
Mean anomaly:     206.2080 deg
Mean motion:   14.28685407 rev/day
Decay rate:       3.87e-06 rev/day^2
Epoch rev:           70009
Checksum:              291

Satellite: RS-22
Catalog number: 27939
Epoch time:      12082.74272770
Element set:     195
Inclination:      097.8191 deg
RA of node:       287.9622 deg
Eccentricity:    0.0013445
Arg of perigee:   174.8036 deg
Mean anomaly:     185.3308 deg
Mean motion:   14.63940536 rev/day
Decay rate:       4.24e-06 rev/day^2
Epoch rev:           45323
Checksum:              321

Satellite: VO-52
Catalog number: 28650
Epoch time:      12081.60301227
Element set:      55
Inclination:      097.6074 deg
RA of node:       116.8145 deg
Eccentricity:    0.0025942
Arg of perigee:   331.1591 deg
Mean anomaly:     028.8198 deg
Mean motion:   14.82761585 rev/day
Decay rate:      1.331e-05 rev/day^2
Epoch rev:           37199
Checksum:              304

Satellite: HO-68
Catalog number: 36122
Epoch time:      12082.79498358
Element set:     308
Inclination:      100.3715 deg
RA of node:       143.8516 deg
Eccentricity:    0.0007116
Arg of perigee:   308.1698 deg
Mean anomaly:     051.8774 deg
Mean motion:   13.16294081 rev/day
Decay rate:       -4.4e-07 rev/day^2
Epoch rev:           10902
Checksum:              299

/EX
SB KEPS @ AMSAT  $ORB12082.D
Orbital Elements  12082.MICROS

HR AMSAT ORBITAL ELEMENTS FOR THE MICROSATS
FROM WA5QGD FORT WORTH,TX March 22, 2012
Send SUBSCRIBE KEPS/UNSUBSCRIBE KEPS to majordomo@amsat.org only
BID: ORB12082.D
TO ALL RADIO AMATEURS BT

Satellite: UO-11
Catalog number: 14781
Epoch time:      12082.80836994
Element set:     820
Inclination:      097.9655 deg
RA of node:       143.0508 deg
Eccentricity:    0.0008208
Arg of perigee:   319.3322 deg
Mean anomaly:     040.7271 deg
Mean motion:   14.80354244 rev/day
Decay rate:       5.68e-06 rev/day^2
Epoch rev:           50715
Checksum:              299

Satellite: AO-16
Catalog number: 20439
Epoch time:      12081.95909661
Element set:    0425
Inclination:      098.4216 deg
RA of node:       027.8134 deg
Eccentricity:    0.0011879
Arg of perigee:   058.6959 deg
Mean anomaly:     301.5383 deg
Mean motion:   14.32029119 rev/day
Decay rate:       1.45e-06 rev/day^2
Epoch rev:           15751
Checksum:              310

Satellite: LO-19
Catalog number: 20442
Epoch time:      12081.85566204
Element set:    0362
Inclination:      098.3872 deg
RA of node:       031.0278 deg
Eccentricity:    0.0012813
Arg of perigee:   052.1026 deg
Mean anomaly:     308.1312 deg
Mean motion:   14.32248810 rev/day
Decay rate:        3.8e-07 rev/day^2
Epoch rev:           15768
Checksum:              270

Satellite: AO-27
Catalog number: 22825
Epoch time:      12082.86988640
Element set:      60
Inclination:      098.5665 deg
RA of node:       027.0627 deg
Eccentricity:    0.0008420
Arg of perigee:   167.7445 deg
Mean anomaly:     192.3937 deg
Mean motion:   14.29439830 rev/day
Decay rate:        9.9e-07 rev/day^2
Epoch rev:           96414
Checksum:              337

Satellite: IO-26
Catalog number: 22826
Epoch time:      12081.90745710
Element set:    0827
Inclination:      098.5608 deg
RA of node:       026.5095 deg
Eccentricity:    0.0008958
Arg of perigee:   164.7193 deg
Mean anomaly:     195.4260 deg
Mean motion:   14.29711533 rev/day
Decay rate:       1.33e-06 rev/day^2
Epoch rev:           96413
Checksum:              317

Satellite: GO-32
Catalog number: 25397
Epoch time:      12081.80280976
Element set:    0733
Inclination:      098.3549 deg
RA of node:       064.8490 deg
Eccentricity:    0.0001633
Arg of perigee:   144.8233 deg
Mean anomaly:     215.3054 deg
Mean motion:   14.23262595 rev/day
Decay rate:      -1.27e-06 rev/day^2
Epoch rev:           71159
Checksum:              306

Satellite: NO-44
Catalog number: 26931
Epoch time:      12082.65129997
Element set:     998
Inclination:      067.0553 deg
RA of node:       343.3681 deg
Eccentricity:    0.0006855
Arg of perigee:   276.7718 deg
Mean anomaly:     083.2615 deg
Mean motion:   14.29774661 rev/day
Decay rate:       3.45e-06 rev/day^2
Epoch rev:           54687
Checksum:              356

